| time (UTC) | temp F | wind direction | speed knots | gust knots | rain 1hr in | rain 24hr in | rain mn in | humidity % | barometer mb |
| 20260504215000 | 79 | 195 | 7.8 | 18.2 | 0.00 | 0.00 | 0.00 | 39 | 1006.8 |
| 20260504214500 | 79 | 209 | 7.8 | 19.1 | 0.00 | 0.00 | 0.00 | 40 | 1006.8 |
| 20260504214000 | 79 | 197 | 12.2 | 19.1 | 0.00 | 0.00 | 0.00 | 40 | 1006.9 |
| 20260504213500 | 79 | 219 | 11.3 | 14.8 | 0.00 | 0.00 | 0.00 | 40 | 1007.0 |
| 20260504213000 | 78 | 219 | 7.8 | 18.2 | 0.00 | 0.00 | 0.00 | 43 | 1007.0 |
| 20260504212500 | 79 | 192 | 12.2 | 18.2 | 0.00 | 0.00 | 0.00 | 40 | 1007.1 |
| 20260504212000 | 79 | 205 | 15.6 | 17.4 | 0.00 | 0.00 | 0.00 | 41 | 1007.2 |
| 20260504211500 | 79 | 203 | 9.6 | 17.4 | 0.00 | 0.00 | 0.00 | 39 | 1007.2 |
| 20260504211000 | 80 | 208 | 12.2 | 17.4 | 0.00 | 0.00 | 0.00 | 40 | 1007.3 |
| 20260504210500 | 79 | 190 | 12.2 | 17.4 | 0.00 | 0.00 | 0.00 | 40 | 1007.3 |
| 20260504210000 | 79 | 198 | 7.8 | 18.2 | 0.00 | 0.00 | 0.00 | 43 | 1007.4 |
| 20260504205500 | 79 | 200 | 14.8 | 18.2 | 0.00 | 0.00 | 0.00 | 39 | 1007.3 |
| 20260504205000 | 79 | 196 | 7.8 | 19.1 | 0.00 | 0.00 | 0.00 | 40 | 1007.5 |
| 20260504204500 | 78 | 212 | 10.4 | 19.1 | 0.00 | 0.00 | 0.00 | 40 | 1007.6 |
| 20260504204000 | 78 | 202 | 11.3 | 21.7 | 0.00 | 0.00 | 0.00 | 40 | 1007.6 |
| 20260504203500 | 79 | 203 | 14.8 | 22.6 | 0.00 | 0.00 | 0.00 | 39 | 1007.7 |
| 20260504203000 | 79 | 206 | 16.5 | 22.6 | 0.00 | 0.00 | 0.00 | 40 | 1007.8 |
| 20260504202500 | 78 | 211 | 13.0 | 20.9 | 0.00 | 0.00 | 0.00 | 40 | 1008.1 |
| 20260504202000 | 78 | 214 | 8.7 | 20.9 | 0.00 | 0.00 | 0.00 | 41 | 1008.2 |
| 20260504201500 | 79 | 187 | 11.3 | 16.5 | 0.00 | 0.00 | 0.00 | 40 | 1008.2 |
| 20260504201000 | 80 | 242 | 15.6 | 19.1 | 0.00 | 0.00 | 0.00 | 40 | 1008.2 |
| 20260504200500 | 79 | 196 | 11.3 | 19.1 | 0.00 | 0.00 | 0.00 | 39 | 1008.4 |
| 20260504200000 | 79 | 183 | 11.3 | 19.1 | 0.00 | 0.00 | 0.00 | 41 | 1008.4 |
| 20260504195500 | 79 | 213 | 9.6 | 20.9 | 0.00 | 0.00 | 0.00 | 41 | 1008.3 |
| 20260504195000 | 79 | 207 | 14.8 | 20.9 | 0.00 | 0.00 | 0.00 | 39 | 1008.4 |
| 20260504194500 | 78 | 200 | 11.3 | 19.1 | 0.00 | 0.00 | 0.00 | 42 | 1008.4 |
| 20260504194000 | 78 | 212 | 16.5 | 18.2 | 0.00 | 0.00 | 0.00 | 40 | 1008.4 |
| 20260504193500 | 78 | 234 | 7.8 | 17.4 | 0.00 | 0.00 | 0.00 | 39 | 1008.8 |
| 20260504193000 | 78 | 232 | 9.6 | 19.1 | 0.00 | 0.00 | 0.00 | 42 | 1008.9 |
| 20260504192500 | 78 | 210 | 10.4 | 23.5 | 0.00 | 0.00 | 0.00 | 41 | 1008.8 |
| 20260504192000 | 79 | 224 | 19.1 | 23.5 | 0.00 | 0.00 | 0.00 | 39 | 1009.0 |
| 20260504191506 | 79 | 209 | 8.7 | 21.7 | 0.00 | 0.00 | 0.00 | 39 | 1009.0 |
| 20260504191000 | 79 | 196 | 17.4 | 19.1 | 0.00 | 0.00 | 0.00 | 40 | 1008.9 |
| 20260504190500 | 79 | 198 | 11.3 | 19.1 | 0.00 | 0.00 | 0.00 | 43 | 1009.1 |
| 20260504190006 | 78 | 218 | 7.0 | 24.3 | 0.00 | 0.00 | 0.00 | 41 | 1009.2 |
| 20260504185506 | 78 | 241 | 13.0 | 24.3 | 0.00 | 0.00 | 0.00 | 39 | 1009.0 |
| 20260504185000 | 78 | 209 | 8.7 | 22.6 | 0.00 | 0.00 | 0.00 | 42 | 1009.3 |
| 20260504184500 | 79 | 199 | 8.7 | 20.9 | 0.00 | 0.00 | 0.00 | 40 | 1009.4 |
| 20260504184000 | 79 | 204 | 16.5 | 20.9 | 0.00 | 0.00 | 0.00 | 40 | 1009.3 |
| 20260504183500 | 78 | 207 | 10.4 | 20.0 | 0.00 | 0.00 | 0.00 | 44 | 1009.5 |
| 20260504183000 | 78 | 199 | 9.6 | 31.3 | 0.00 | 0.00 | 0.00 | 43 | 1009.6 |
| 20260504182500 | 78 | 199 | 14.8 | 31.3 | 0.00 | 0.00 | 0.00 | 41 | 1009.5 |
| 20260504182000 | 78 | 180 | 20.9 | 24.3 | 0.00 | 0.00 | 0.00 | 41 | 1009.2 |
| 20260504181500 | 77 | 210 | 8.7 | 24.3 | 0.00 | 0.00 | 0.00 | 44 | 1009.7 |
| 20260504181000 | 77 | 189 | 13.0 | 21.7 | 0.00 | 0.00 | 0.00 | 43 | 1009.7 |
| 20260504180500 | 78 | 211 | 17.4 | 22.6 | 0.00 | 0.00 | 0.00 | 42 | 1009.6 |
| 20260504180000 | 77 | 227 | 13.0 | 22.6 | 0.00 | 0.00 | 0.00 | 42 | 1009.8 |
| 20260504175500 | 77 | 215 | 13.0 | 20.9 | 0.00 | 0.00 | 0.00 | 44 | 1009.9 |
| 20260504175000 | 77 | 216 | 14.8 | 18.2 | 0.00 | 0.00 | 0.00 | 44 | 1009.7 |
| 20260504174500 | 77 | 231 | 12.2 | 21.7 | 0.00 | 0.00 | 0.00 | 45 | 1010.1 |
| 20260504174000 | 76 | 207 | 13.9 | 21.7 | 0.00 | 0.00 | 0.00 | 44 | 1010.0 |
| 20260504173500 | 77 | 224 | 13.0 | 20.9 | 0.00 | 0.00 | 0.00 | 43 | 1010.3 |
| 20260504173000 | 77 | 202 | 15.6 | 20.9 | 0.00 | 0.00 | 0.00 | 42 | 1010.1 |
| 20260504172500 | 77 | 213 | 17.4 | 20.9 | 0.00 | 0.00 | 0.00 | 41 | 1010.0 |
| 20260504172000 | 76 | 201 | 14.8 | 20.9 | 0.00 | 0.00 | 0.00 | 46 | 1010.2 |
| 20260504171500 | 77 | 241 | 8.7 | 20.0 | 0.00 | 0.00 | 0.00 | 47 | 1010.4 |
| 20260504171001 | 76 | 239 | 13.9 | 20.9 | 0.00 | 0.00 | 0.00 | 48 | 1010.3 |
| 20260504170500 | 76 | 237 | 13.9 | 20.9 | 0.00 | 0.00 | 0.00 | 45 | 1010.4 |
| 20260504151000 | 71 | 211 | 7.8 | 11.3 | 0.00 | 0.00 | 0.00 | 61 | 1011.0 |
| 20260504150500 | 70 | 216 | 11.3 | 13.0 | 0.00 | 0.00 | 0.00 | 61 | 1010.9 |
| 20260504141000 | 67 | 187 | 7.8 | 10.4 | 0.00 | 0.00 | 0.00 | 66 | 1011.2 |
| 20260504140500 | 67 | 217 | 7.0 | 11.3 | 0.00 | 0.00 | 0.00 | 65 | 1011.2 |
| 20260504130500 | 63 | 228 | 5.2 | 9.6 | 0.00 | 0.00 | 0.00 | 71 | 1010.8 |
| 20260504110500 | 59 | 214 | 6.1 | 8.7 | 0.00 | 0.00 | 0.00 | 76 | 1009.7 |
| 20260504100500 | 61 | 212 | 7.8 | 7.8 | 0.00 | 0.00 | 0.00 | 72 | 1009.8 |
| 20260504082000 | 61 | 195 | 5.2 | 7.8 | 0.00 | 0.00 | 0.00 | 72 | 1010.1 |
| 20260504081500 | 62 | 213 | 5.2 | 7.8 | 0.00 | 0.00 | 0.00 | 72 | 1010.2 |
| 20260504081000 | 62 | 201 | 6.1 | 7.0 | 0.00 | 0.00 | 0.00 | 72 | 1010.2 |
| 20260504080500 | 62 | 223 | 6.1 | 6.1 | 0.00 | 0.00 | 0.00 | 72 | 1010.2 |
| 20260504050500 | 64 | 190 | 4.3 | 6.1 | 0.00 | 0.00 | 0.00 | 67 | 1011.2 |
| 20260504050000 | 64 | 198 | 4.3 | 6.1 | 0.00 | 0.00 | 0.00 | 67 | 1011.2 |
| 20260504045500 | 64 | 195 | 5.2 | 7.0 | 0.00 | 0.00 | 0.00 | 67 | 1011.2 |
| 20260504045000 | 65 | 201 | 4.3 | 7.8 | 0.00 | 0.00 | 0.00 | 66 | 1011.2 |
| 20260504044500 | 65 | 183 | 5.2 | 7.8 | 0.00 | 0.00 | 0.00 | 65 | 1011.2 |
| 20260504044000 | 65 | 198 | 3.5 | 8.7 | 0.00 | 0.00 | 0.00 | 65 | 1011.3 |
| 20260504043500 | 65 | 186 | 5.2 | 8.7 | 0.00 | 0.00 | 0.00 | 65 | 1011.4 |
| 20260504043000 | 65 | 197 | 5.2 | 7.8 | 0.00 | 0.00 | 0.00 | 65 | 1011.4 |
| 20260504042500 | 65 | 195 | 7.8 | 7.8 | 0.00 | 0.00 | 0.00 | 65 | 1011.4 |
| 20260504042000 | 65 | 194 | 4.3 | 7.8 | 0.00 | 0.00 | 0.00 | 65 | 1011.5 |
| 20260504041500 | 65 | 194 | 6.1 | 7.8 | 0.00 | 0.00 | 0.00 | 65 | 1011.5 |
| 20260504041000 | 65 | 193 | 5.2 | 7.8 | 0.00 | 0.00 | 0.00 | 65 | 1011.5 |
| 20260504040500 | 65 | 196 | 4.3 | 7.0 | 0.00 | 0.00 | 0.00 | 65 | 1011.6 |
| 20260504040000 | 65 | 193 | 4.3 | 7.0 | 0.00 | 0.00 | 0.00 | 66 | 1011.6 |
| 20260504035500 | 65 | 194 | 5.2 | 7.0 | 0.00 | 0.00 | 0.00 | 65 | 1011.6 |
| 20260504035000 | 65 | 200 | 3.5 | 5.2 | 0.00 | 0.00 | 0.00 | 66 | 1011.7 |
| 20260504034500 | 65 | 190 | 4.3 | 5.2 | 0.00 | 0.00 | 0.00 | 65 | 1011.7 |
| 20260504034000 | 65 | 170 | 3.5 | 6.1 | 0.00 | 0.00 | 0.00 | 65 | 1011.6 |
| 20260504033500 | 65 | 193 | 4.3 | 6.1 | 0.00 | 0.00 | 0.00 | 65 | 1011.6 |
| 20260504033000 | 66 | 183 | 4.3 | 5.2 | 0.00 | 0.00 | 0.00 | 65 | 1011.7 |
| 20260504032500 | 66 | 183 | 3.5 | 5.2 | 0.00 | 0.00 | 0.00 | 65 | 1011.7 |
| 20260504032000 | 66 | 182 | 3.5 | 7.0 | 0.00 | 0.00 | 0.00 | 64 | 1011.7 |
| 20260504031500 | 66 | 180 | 5.2 | 7.0 | 0.00 | 0.00 | 0.00 | 64 | 1011.7 |
| 20260504031000 | 67 | 187 | 5.2 | 7.0 | 0.00 | 0.00 | 0.00 | 63 | 1011.7 |
| 20260504030500 | 67 | 192 | 3.5 | 7.0 | 0.00 | 0.00 | 0.00 | 62 | 1011.6 |
| 20260504030000 | 67 | 189 | 5.2 | 6.1 | 0.00 | 0.00 | 0.00 | 61 | 1011.7 |
| 20260504025500 | 67 | 197 | 4.3 | 6.1 | 0.00 | 0.00 | 0.00 | 62 | 1011.6 |
| 20260504025000 | 67 | 182 | 4.3 | 5.2 | 0.00 | 0.00 | 0.00 | 63 | 1011.6 |
| 20260504024500 | 67 | 182 | 3.5 | 6.1 | 0.00 | 0.00 | 0.00 | 62 | 1011.6 |
| 20260504024000 | 67 | 190 | 4.3 | 6.1 | 0.00 | 0.00 | 0.00 | 61 | 1011.6 |
| 20260504023500 | 67 | 175 | 5.2 | 6.1 | 0.00 | 0.00 | 0.00 | 62 | 1011.5 |
| 20260504023000 | 66 | 183 | 4.3 | 4.3 | 0.00 | 0.00 | 0.00 | 65 | 1011.6 |
| 20260504022500 | 66 | 199 | 2.6 | 5.2 | 0.00 | 0.00 | 0.00 | 67 | 1011.5 |
| 20260504022000 | 67 | 188 | 3.5 | 5.2 | 0.00 | 0.00 | 0.00 | 66 | 1011.5 |
| 20260504021500 | 67 | 188 | 3.5 | 4.3 | 0.00 | 0.00 | 0.00 | 65 | 1011.5 |
| 20260504021000 | 67 | 181 | 3.5 | 4.3 | 0.00 | 0.00 | 0.00 | 65 | 1011.5 |
| 20260504020500 | 67 | 188 | 4.3 | 4.3 | 0.00 | 0.00 | 0.00 | 66 | 1011.5 |
| 20260504020000 | 67 | 186 | 3.5 | 4.3 | 0.00 | 0.00 | 0.00 | 67 | 1011.4 |
| 20260504015500 | 67 | 196 | 3.5 | 4.3 | 0.00 | 0.00 | 0.00 | 68 | 1011.5 |
| 20260504015000 | 67 | 197 | 3.5 | 4.3 | 0.00 | 0.00 | 0.00 | 65 | 1011.4 |
| 20260504014500 | 67 | 193 | 3.5 | 4.3 | 0.00 | 0.00 | 0.00 | 66 | 1011.4 |
| 20260504014000 | 67 | 196 | 4.3 | 4.3 | 0.00 | 0.00 | 0.00 | 66 | 1011.4 |
| 20260504013500 | 68 | 194 | 3.5 | 3.5 | 0.00 | 0.00 | 0.00 | 64 | 1011.4 |
| 20260504013000 | 69 | 198 | 3.5 | 3.5 | 0.00 | 0.00 | 0.00 | 60 | 1011.4 |
| 20260504012500 | 69 | 193 | 3.5 | 3.5 | 0.00 | 0.00 | 0.00 | 60 | 1011.4 |
| 20260504012000 | 69 | 195 | 2.6 | 3.5 | 0.00 | 0.00 | 0.00 | 61 | 1011.4 |
| 20260504011500 | 69 | 189 | 2.6 | 4.3 | 0.00 | 0.00 | 0.00 | 60 | 1011.4 |
| 20260504011000 | 70 | 183 | 3.5 | 4.3 | 0.00 | 0.00 | 0.00 | 61 | 1011.4 |
| 20260504010500 | 72 | 189 | 3.5 | 3.5 | 0.00 | 0.00 | 0.00 | 51 | 1011.5 |
| 20260504010000 | 72 | 199 | 2.6 | 3.5 | 0.00 | 0.00 | 0.00 | 47 | 1011.4 |
| 20260504005500 | 73 | 208 | 3.5 | 3.5 | 0.00 | 0.00 | 0.00 | 48 | 1011.5 |
| 20260504005000 | 73 | 203 | 2.6 | 3.5 | 0.00 | 0.00 | 0.00 | 47 | 1011.5 |
| 20260504004500 | 73 | 202 | 3.5 | 3.5 | 0.00 | 0.00 | 0.00 | 49 | 1011.5 |
| 20260504004000 | 73 | 198 | 2.6 | 4.3 | 0.00 | 0.00 | 0.00 | 51 | 1011.6 |
| 20260504003500 | 74 | 202 | 3.5 | 5.2 | 0.00 | 0.00 | 0.00 | 48 | 1011.7 |
| 20260504003000 | 75 | 207 | 3.5 | 5.2 | 0.00 | 0.00 | 0.00 | 47 | 1011.8 |
| 20260504002500 | 75 | 215 | 4.3 | 5.2 | 0.00 | 0.00 | 0.00 | 44 | 1011.8 |
| 20260504002000 | 76 | 209 | 5.2 | 5.2 | 0.00 | 0.00 | 0.00 | 44 | 1011.8 |
| 20260504001500 | 76 | 235 | 3.5 | 6.1 | 0.00 | 0.00 | 0.00 | 44 | 1011.8 |
| 20260504001000 | 77 | 217 | 5.2 | 7.0 | 0.00 | 0.00 | 0.00 | 41 | 1011.9 |
| 20260504000500 | 77 | 205 | 2.6 | 7.0 | 0.00 | 0.00 | 0.00 | 42 | 1011.9 |
| 20260504000000 | 77 | 204 | 6.1 | 9.6 | 0.00 | 0.00 | 0.00 | 41 | 1011.9 |
| 20260503235500 | 77 | 209 | 4.3 | 9.6 | 0.00 | 0.00 | 0.00 | 41 | 1011.8 |
| 20260503235000 | 77 | 233 | 5.2 | 9.6 | 0.00 | 0.00 | 0.00 | 39 | 1011.8 |
| 20260503234500 | 77 | 213 | 7.8 | 9.6 | 0.00 | 0.00 | 0.00 | 38 | 1011.7 |
| 20260503234000 | 77 | 218 | 5.2 | 9.6 | 0.00 | 0.00 | 0.00 | 40 | 1011.8 |
| 20260503233500 | 78 | 195 | 5.2 | 9.6 | 0.00 | 0.00 | 0.00 | 41 | 1011.8 |
| 20260503233000 | 78 | 209 | 6.1 | 8.7 | 0.00 | 0.00 | 0.00 | 40 | 1011.8 |
| 20260503232501 | 78 | 233 | 5.2 | 8.7 | 0.00 | 0.00 | 0.00 | 41 | 1011.9 |
| 20260503232000 | 78 | 230 | 6.1 | 8.7 | 0.00 | 0.00 | 0.00 | 38 | 1012.0 |
| 20260503231500 | 78 | 229 | 6.1 | 10.4 | 0.00 | 0.00 | 0.00 | 37 | 1012.1 |
| 20260503231000 | 78 | 238 | 6.1 | 11.3 | 0.00 | 0.00 | 0.00 | 36 | 1012.1 |
| 20260503230500 | 78 | 228 | 9.6 | 11.3 | 0.00 | 0.00 | 0.00 | 36 | 1012.2 |
| 20260503230000 | 78 | 242 | 6.1 | 10.4 | 0.00 | 0.00 | 0.00 | 37 | 1012.2 |
| 20260503225500 | 78 | 219 | 6.1 | 7.8 | 0.00 | 0.00 | 0.00 | 39 | 1012.3 |
| 20260503225000 | 78 | 258 | 1.7 | 7.8 | 0.00 | 0.00 | 0.00 | 41 | 1012.4 |
| 20260503224500 | 78 | 239 | 7.0 | 11.3 | 0.00 | 0.00 | 0.00 | 38 | 1012.3 |
| 20260503224000 | 78 | 231 | 3.5 | 11.3 | 0.00 | 0.00 | 0.00 | 40 | 1012.5 |
| 20260503223500 | 78 | 214 | 7.8 | 10.4 | 0.00 | 0.00 | 0.00 | 38 | 1012.4 |
| 20260503223000 | 78 | 222 | 7.0 | 15.6 | 0.00 | 0.00 | 0.00 | 35 | 1012.5 |
| 20260503222500 | 79 | 237 | 5.2 | 15.6 | 0.00 | 0.00 | 0.00 | 40 | 1012.5 |
| 20260503222000 | 78 | 215 | 5.2 | 10.4 | 0.00 | 0.00 | 0.00 | 37 | 1012.5 |
| 20260503221500 | 78 | 245 | 7.0 | 9.6 | 0.00 | 0.00 | 0.00 | 38 | 1012.6 |
| 20260503221000 | 78 | 232 | 4.3 | 9.6 | 0.00 | 0.00 | 0.00 | 35 | 1012.6 |
| 20260503220500 | 78 | 243 | 6.1 | 13.0 | 0.00 | 0.00 | 0.00 | 34 | 1012.7 |
| 20260503220000 | 78 | 234 | 6.1 | 13.0 | 0.00 | 0.00 | 0.00 | 37 | 1012.7 |
| 20260503215500 | 78 | 239 | 8.7 | 14.8 | 0.00 | 0.00 | 0.00 | 39 | 1012.7 |